TimePDT,TemperatureF,Dew PointF,Humidity,Sea Level PressureIn,VisibilityMPH,Wind Direction,Wind SpeedMPH,Gust SpeedMPH,PrecipitationIn,Events,Conditions,WindDirDegrees,DateUTC
12:56 AM,42.1,28.9,60,30.20,10.0,NE,3.5,-,N/A,,Clear,40,2012-10-18 07:56:00
1:56 AM,41.0,27.0,57,30.20,10.0,NE,3.5,-,N/A,,Clear,50,2012-10-18 08:56:00
2:56 AM,39.9,27.0,60,30.20,10.0,Calm,Calm,-,N/A,,Clear,0,2012-10-18 09:56:00
3:56 AM,37.0,27.0,67,30.19,10.0,Calm,Calm,-,N/A,,Clear,0,2012-10-18 10:56:00
4:56 AM,37.0,26.1,65,30.19,10.0,Calm,Calm,-,N/A,,Clear,0,2012-10-18 11:56:00
5:56 AM,36.0,26.1,67,30.20,10.0,ENE,3.5,-,N/A,,Clear,60,2012-10-18 12:56:00
6:56 AM,36.0,26.1,67,30.21,10.0,Calm,Calm,-,N/A,,Clear,0,2012-10-18 13:56:00
7:56 AM,37.0,25.0,62,30.22,10.0,Calm,Calm,-,N/A,,Clear,0,2012-10-18 14:56:00
8:56 AM,45.0,28.9,53,30.21,10.0,Calm,Calm,-,N/A,,Clear,0,2012-10-18 15:56:00
9:56 AM,53.1,32.0,45,30.19,10.0,Calm,Calm,-,N/A,,Clear,0,2012-10-18 16:56:00
10:56 AM,64.9,30.0,27,30.16,10.0,Calm,Calm,-,N/A,,Clear,0,2012-10-18 17:56:00
11:56 AM,71.1,30.0,22,30.13,10.0,Calm,Calm,-,N/A,,Clear,0,2012-10-18 18:56:00
12:56 PM,77.0,26.1,15,30.10,10.0,Calm,Calm,-,N/A,,Clear,0,2012-10-18 19:56:00
1:56 PM,78.1,30.0,17,30.08,10.0,Calm,Calm,-,N/A,,Clear,0,2012-10-18 20:56:00
2:56 PM,79.0,33.1,19,30.06,10.0,Variable,3.5,-,N/A,,Clear,0,2012-10-18 21:56:00
3:56 PM,78.1,32.0,19,30.06,10.0,Calm,Calm,-,N/A,,Clear,0,2012-10-18 22:56:00
4:56 PM,75.0,32.0,21,30.06,10.0,Calm,Calm,-,N/A,,Clear,0,2012-10-18 23:56:00
5:56 PM,71.1,33.1,25,30.06,10.0,Calm,Calm,-,N/A,,Clear,0,2012-10-19 00:56:00
6:56 PM,61.0,37.0,41,30.10,10.0,Calm,Calm,-,N/A,,Clear,0,2012-10-19 01:56:00
7:56 PM,55.0,37.9,53,30.13,10.0,Calm,Calm,-,N/A,,Clear,0,2012-10-19 02:56:00
8:56 PM,53.1,37.0,55,30.13,10.0,Calm,Calm,-,N/A,,Clear,0,2012-10-19 03:56:00
9:56 PM,50.0,36.0,59,30.13,10.0,Calm,Calm,-,N/A,,Clear,0,2012-10-19 04:56:00
10:56 PM,46.9,35.1,63,30.13,10.0,Calm,Calm,-,N/A,,Clear,0,2012-10-19 05:56:00
11:56 PM,46.0,36.0,68,30.12,10.0,Calm,Calm,-,N/A,,Clear,0,2012-10-19 06:56:00